Budapest Bridge — VRIZ5 — position and weather

sailwx.info

Track history (hours):
 
Tides and Currents Weather Stations Pressure Air Temp Water Temp Dewpoint Dewpoint Depression Visibility Wind Speed Wind Dir Waves Ship Positions

Budapest Bridge

Last reported at 2014-Nov-27 00:00 UTC. Time now 2014-Nov-27 04:27 UTC.
Position N 12°12' E 111°30'.

Length 268 m; draft 10.8 m.

Type: Cargo ship. MMSI: 477434200.

Wind from 040 at 12 knots

Barometer 1010.0 mb
Air temperature 27.0 ° C
Visibility: greater than 10.8 NM
Dewpoint 21.0 ° C

Date/timePositionNaut miles runAvg speedWind from/ knotsBaromVisibWave heightAir tempDewpointWater temp
2014-Nov-27 00:00N 12°12' E 111°30'35711.9 040 / 121010.010.8 27.021.0
2014-Nov-25 18:00N 17°30' E 114°18'23913.3 050 / 121013.010.8 26.023.1
2014-Nov-25 00:00N 21°00' E 116°18'7512.7 030 / 141012.010.8 25.022.0
2014-Nov-24 18:05N 22°06' E 116°56'1811.9
2014-Nov-24 16:33N 22°23' E 117°05'1311.3
2014-Nov-24 15:25N 22°34' E 117°10'1011.1
2014-Nov-24 14:30N 22°44' E 117°14'1010.9
2014-Nov-24 13:33N 22°53' E 117°19'1311.3
2014-Nov-24 12:23N 23°04' E 117°27'911.3
2014-Nov-24 11:33N 23°13' E 117°30'1211.9
2014-Nov-24 10:33N 23°22' E 117°39'1712.7
2014-Nov-24 09:10N 23°34' E 117°53'813.1
2014-Nov-24 08:33N 23°40' E 117°59'3013.2
2014-Nov-24 06:16N 23°58' E 118°25'1512.8
2014-Nov-24 05:05N 24°08' E 118°37'2113.2
2014-Nov-24 03:32N 24°19' E 118°57'1912.9
2014-Nov-24 02:03N 24°30' E 119°14'2111.7
2014-Nov-24 00:13N 24°41' E 119°34'811.9
2014-Nov-23 23:33N 24°45' E 119°41'  
2014-Nov-21 13:32N 29°08' E 122°39'2611.5
2014-Nov-21 11:18N 29°34' E 122°34'810.5
2014-Nov-21 10:33N 29°40' E 122°28'1111.1
2014-Nov-21 09:33N 29°46' E 122°18'1212.0
2014-Nov-21 08:33N 29°55' E 122°09'6 6.2
2014-Nov-21 07:33N 29°54' E 122°02'0 0.0
2014-Nov-21 06:33N 29°54' E 122°02'0 0.0
2014-Nov-21 05:33N 29°54' E 122°02'0 0.0
2014-Nov-21 04:33N 29°54' E 122°02'0 0.0
2014-Nov-21 03:33N 29°54' E 122°02'0 0.0
2014-Nov-21 02:33N 29°54' E 122°02'0 0.0
2014-Nov-21 01:33N 29°54' E 122°02'0 0.0
2014-Nov-21 00:33N 29°54' E 122°02'0 0.0
2014-Nov-20 23:33N 29°54' E 122°02'0 0.0
2014-Nov-20 22:33N 29°54' E 122°02'0 0.0
2014-Nov-20 21:33N 29°54' E 122°02'0 0.1
2014-Nov-20 20:33N 29°54' E 122°02'6 5.6
2014-Nov-20 19:33N 29°55' E 122°08'1211.6
2014-Nov-20 18:33N 29°47' E 122°17'8 8.3
2014-Nov-20 17:33N 29°43' E 122°26'1110.3
2014-Nov-20 16:31N 29°40' E 122°37'1211.9
2014-Nov-20 15:30N 29°48' E 122°49'46 7.6
2014-Nov-20 09:32N 30°31' E 122°31'1212.5
2014-Nov-20 08:33N 30°33' E 122°17'12 9.2
2014-Nov-20 07:16N 30°37' E 122°04'0 0.0
2014-Nov-20 06:25N 30°37' E 122°04'0 0.0
2014-Nov-20 05:25N 30°37' E 122°04'0 0.0
2014-Nov-20 04:31N 30°37' E 122°04'0 0.0
2014-Nov-20 03:28N 30°37' E 122°04'0 0.0
2014-Nov-20 02:22N 30°37' E 122°04'0 0.0
2014-Nov-20 01:31N 30°37' E 122°04'0 0.0
2014-Nov-20 00:19N 30°37' E 122°04'0 0.0
2014-Nov-19 23:31N 30°37' E 122°04'0 0.0
2014-Nov-19 22:28N 30°37' E 122°04'0 0.0
2014-Nov-19 21:22N 30°37' E 122°04'0 0.0
2014-Nov-19 20:31N 30°37' E 122°04'0 0.0
2014-Nov-19 19:31N 30°37' E 122°04'0 0.0
2014-Nov-19 18:31N 30°37' E 122°04'0 0.0
2014-Nov-19 17:31N 30°37' E 122°04'0 0.0
2014-Nov-19 16:31N 30°37' E 122°04'0 0.0
2014-Nov-19 15:31N 30°37' E 122°04'4 3.9
2014-Nov-19 14:34N 30°35' E 122°07'1211.6
2014-Nov-19 13:33N 30°33' E 122°21'4 4.4
2014-Nov-19 12:33N 30°33' E 122°26'5 1.3
2014-Nov-19 08:32N 30°31' E 122°32'1412.5
2014-Nov-19 07:24N 30°25' E 122°47'4 0.5
2014-Nov-19 00:00N 30°24' E 122°42'4 0.2 100 / 71025.010.8 16.0 8.1
2014-Nov-18 01:24N 30°25' E 122°46'192 7.6
2014-Nov-17 00:00N 27°18' E 121°54'   360 / 371020.0 5.4 19.015.7
Track history (hours):
 
Tides and Currents Weather Stations Pressure Air Temp Water Temp Dewpoint Dewpoint Depression Visibility Wind Speed Wind Dir Waves Ship Positions

Budapest Bridge

Last reported at 2014-Nov-27 00:00 UTC. Time now 2014-Nov-27 04:27 UTC.
Position N 12°12' E 111°30'.

Length 268 m; draft 10.8 m.

Type: Cargo ship. MMSI: 477434200.

Wind from 040 at 12 knots

Barometer 1010.0 mb
Air temperature 27.0 ° C
Visibility: greater than 10.8 NM
Dewpoint 21.0 ° C

Date/timePositionNaut miles runAvg speedWind from/ knotsBaromVisibWave heightAir tempDewpointWater temp
2014-Nov-27 00:00N 12°12' E 111°30'35711.9 040 / 121010.010.8 27.021.0
2014-Nov-25 18:00N 17°30' E 114°18'23913.3 050 / 121013.010.8 26.023.1
2014-Nov-25 00:00N 21°00' E 116°18'7512.7 030 / 141012.010.8 25.022.0
2014-Nov-24 18:05N 22°06' E 116°56'1811.9
2014-Nov-24 16:33N 22°23' E 117°05'1311.3
2014-Nov-24 15:25N 22°34' E 117°10'1011.1
2014-Nov-24 14:30N 22°44' E 117°14'1010.9
2014-Nov-24 13:33N 22°53' E 117°19'1311.3
2014-Nov-24 12:23N 23°04' E 117°27'911.3
2014-Nov-24 11:33N 23°13' E 117°30'1211.9
2014-Nov-24 10:33N 23°22' E 117°39'1712.7
2014-Nov-24 09:10N 23°34' E 117°53'813.1
2014-Nov-24 08:33N 23°40' E 117°59'3013.2
2014-Nov-24 06:16N 23°58' E 118°25'1512.8
2014-Nov-24 05:05N 24°08' E 118°37'2113.2
2014-Nov-24 03:32N 24°19' E 118°57'1912.9
2014-Nov-24 02:03N 24°30' E 119°14'2111.7
2014-Nov-24 00:13N 24°41' E 119°34'811.9
2014-Nov-23 23:33N 24°45' E 119°41'  
2014-Nov-21 13:32N 29°08' E 122°39'2611.5
2014-Nov-21 11:18N 29°34' E 122°34'810.5
2014-Nov-21 10:33N 29°40' E 122°28'1111.1
2014-Nov-21 09:33N 29°46' E 122°18'1212.0
2014-Nov-21 08:33N 29°55' E 122°09'6 6.2
2014-Nov-21 07:33N 29°54' E 122°02'0 0.0
2014-Nov-21 06:33N 29°54' E 122°02'0 0.0
2014-Nov-21 05:33N 29°54' E 122°02'0 0.0
2014-Nov-21 04:33N 29°54' E 122°02'0 0.0
2014-Nov-21 03:33N 29°54' E 122°02'0 0.0
2014-Nov-21 02:33N 29°54' E 122°02'0 0.0
2014-Nov-21 01:33N 29°54' E 122°02'0 0.0
2014-Nov-21 00:33N 29°54' E 122°02'0 0.0
2014-Nov-20 23:33N 29°54' E 122°02'0 0.0
2014-Nov-20 22:33N 29°54' E 122°02'0 0.0
2014-Nov-20 21:33N 29°54' E 122°02'0 0.1
2014-Nov-20 20:33N 29°54' E 122°02'6 5.6
2014-Nov-20 19:33N 29°55' E 122°08'1211.6
2014-Nov-20 18:33N 29°47' E 122°17'8 8.3
2014-Nov-20 17:33N 29°43' E 122°26'1110.3
2014-Nov-20 16:31N 29°40' E 122°37'1211.9
2014-Nov-20 15:30N 29°48' E 122°49'46 7.6
2014-Nov-20 09:32N 30°31' E 122°31'1212.5
2014-Nov-20 08:33N 30°33' E 122°17'12 9.2
2014-Nov-20 07:16N 30°37' E 122°04'0 0.0
2014-Nov-20 06:25N 30°37' E 122°04'0 0.0
2014-Nov-20 05:25N 30°37' E 122°04'0 0.0
2014-Nov-20 04:31N 30°37' E 122°04'0 0.0
2014-Nov-20 03:28N 30°37' E 122°04'0 0.0
2014-Nov-20 02:22N 30°37' E 122°04'0 0.0
2014-Nov-20 01:31N 30°37' E 122°04'0 0.0
2014-Nov-20 00:19N 30°37' E 122°04'0 0.0
2014-Nov-19 23:31N 30°37' E 122°04'0 0.0
2014-Nov-19 22:28N 30°37' E 122°04'0 0.0
2014-Nov-19 21:22N 30°37' E 122°04'0 0.0
2014-Nov-19 20:31N 30°37' E 122°04'0 0.0
2014-Nov-19 19:31N 30°37' E 122°04'0 0.0
2014-Nov-19 18:31N 30°37' E 122°04'0 0.0
2014-Nov-19 17:31N 30°37' E 122°04'0 0.0
2014-Nov-19 16:31N 30°37' E 122°04'0 0.0
2014-Nov-19 15:31N 30°37' E 122°04'4 3.9
2014-Nov-19 14:34N 30°35' E 122°07'1211.6
2014-Nov-19 13:33N 30°33' E 122°21'4 4.4
2014-Nov-19 12:33N 30°33' E 122°26'5 1.3
2014-Nov-19 08:32N 30°31' E 122°32'1412.5
2014-Nov-19 07:24N 30°25' E 122°47'4 0.5
2014-Nov-19 00:00N 30°24' E 122°42'4 0.2 100 / 71025.010.8 16.0 8.1
2014-Nov-18 01:24N 30°25' E 122°46'192 7.6
2014-Nov-17 00:00N 27°18' E 121°54'   360 / 371020.0 5.4 19.015.7

Dump ship's entire track history